Snowfall_Accumulation
0.0 0.0 0.0 0.0 0.0 0.0 0.0 0.0 0.0 0.0 0.0 0.0 0.0 0.0 0.0 0.0 0.0 0.0 0.0 0.0 0.0 0.0 0.0 0.0 0.0 0.0 0.0 0.0 0.0 0.0 0.0 0.0 0.0 0.0 0.0 0.0 0.0 0.0 0.0 0.0 0.0 0.0 0.0 0.0
0.0 0.0 0.0 0.0 0.0 0.0 0.0 0.0 0.0 0.0 0.0 0.0 0.0 0.0 0.0 0.0 0.0 0.0 0.0 0.0 0.0 0.0 0.0 0.0 0.0 0.0 0.0 0.0 0.0 0.0 0.0 0.0 0.0 0.0 0.0 0.0 0.0 0.0 0.0 0.0 0.0 0.0 0.0 0.0
0.0 0.0 0.0 0.0 0.0 0.0 0.0 0.0 0.0 0.0 0.0 0.0 0.0 0.0 0.0 0.0 0.0 0.0 0.0 0.0 0.0 0.0 0.0 0.0 0.0 0.0 0.0 0.0 0.0 0.0 0.0 0.0 0.0 0.0 0.0 0.0 0.0 0.0 0.0 0.0 0.0 0.0 0.0 0.0
0.9 0.2 0.5 0.0 0.0 0.0 0.0 0.0 0.0 0.0 0.0 0.0 0.0 0.0 0.0 0.0 0.0 0.0 0.0 0.0 0.0 0.0 0.0 0.0 0.0 0.0 0.0 0.0 0.0 0.0 0.0 0.0 0.0 0.0 0.0 0.0 0.0 0.0 0.0 0.0 0.0 0.0 0.0 0.0
1.4 1.1 0.2 0.0 0.0 0.0 0.0 0.0 0.0 0.0 0.0 0.0 0.0 0.0 0.0 0.0 0.0 0.0 0.0 0.0 0.0 0.0 0.0 0.0 0.0 0.0 0.0 0.0 0.0 0.0 0.0 0.0 0.0 0.0 0.0 0.0 0.0 0.0 0.0 0.0 0.0 0.0 0.0 0.0
1.7 1.6 0.8 0.0 0.0 0.0 0.0 0.0 0.0 0.0 0.0 0.0 0.0 0.0 0.0 0.0 0.0 0.0 0.0 0.0 0.0 0.0 0.0 0.0 0.0 0.0 0.0 0.0 0.0 0.0 0.0 0.0 0.0 0.0 0.0 0.0 0.0 0.0 0.0 0.0 0.0 0.0 0.0 0.0
1.6 1.8 0.0 0.0 0.0 0.0 0.0 0.5 0.0 0.0 0.0 0.0 0.0 0.0 0.0 0.0 0.0 0.0 0.0 0.0 0.0 0.0 0.0 0.0 0.0 0.0 0.0 0.0 0.0 0.0 0.0 0.0 0.0 0.0 0.0 0.0 0.0 0.0 0.0 0.0 0.0 0.0 0.0 0.0
1.9 0.6 0.7 0.0 0.0 0.0 0.0 0.0 0.0 0.0 0.0 0.0 0.0 0.0 0.0 0.0 0.0 0.0 0.0 0.0 0.0 0.0 0.0 0.0 0.0 0.0 0.0 0.0 0.0 0.0 0.0 0.0 0.0 0.0 0.0 0.0 0.0 0.0 0.0 0.0 0.0 0.0 0.0 0.0
0.2 0.4 0.0 0.0 0.0 0.0 0.0 0.0 0.0 0.0 0.0 0.0 0.0 0.0 0.0 0.0 0.0 0.0 0.0 0.0 0.0 0.0 0.0 0.0 0.0 0.0 0.0 0.0 0.0 0.0 0.0 0.0 0.0 0.0 0.0 0.0 0.0 0.0 0.0 0.0 0.0 0.0 0.0 0.0
0.0 0.0 0.0 0.0 0.0 0.0 0.0 0.0 0.0 0.0 0.0 0.0 0.0 0.0 0.0 0.0 0.0 0.0 0.0 0.0 0.0 0.0 0.0 0.0 0.0 0.0 0.0 0.0 0.0 0.0 0.0 0.0 0.0 0.0 0.0 0.0 0.0 0.0 0.0 0.0 0.0 0.0 0.0 0.0
0.0 0.0 0.0 0.0 0.0 0.0 0.0 0.0 0.0 0.0 0.0 0.0 0.0 0.0 0.0 0.0 0.0 0.0 0.0 0.0 0.0 0.0 0.0 0.0 0.0 0.0 0.0 0.0 0.0 0.0 0.0 0.0 0.0 0.0 0.0 0.0 0.0 0.0 0.0 0.0 0.0 0.0 0.0 0.0
0.2 0.0 0.0 0.0 0.0 0.0 0.0 0.0 0.0 0.0 0.0 0.0 0.0 0.0 0.0 0.0 0.0 0.0 0.0 0.0 0.0 0.0 0.0 0.7 0.0 0.1 0.0 0.0 0.0 0.0 0.0 0.6 0.0 0.6 0.0 0.0 0.0 0.0 0.0 0.1 0.4 0.2 0.1 1.0
0.0 0.0 0.0 0.0 0.0 0.0 0.0 0.0 0.0 0.0 0.0 0.0 0.0 0.0 0.0 0.0 0.0 0.0 0.0 0.0 0.0 0.0 0.0 2.4 0.1 3.4 3.3 3.1 1.3 2.6 1.6 1.5 1.4 1.2 1.4 1.4 1.2 0.0 0.0 1.1 2.9 3.2 5.1 4.8
0.0 0.0 0.0 0.0 0.0 0.0 0.0 0.0 0.0 0.0 0.0 0.0 0.0 0.0 0.0 0.0 0.0 0.0 0.1 0.1 0.0 2.0 3.4 4.3 3.6 4.6 6.1 6.6 6.2 6.4 8.9 7.2 3.5 5.3 8.3 9.1 9.8 10.2 10.0 9.6 8.9 9.1 7.7 5.6
0.0 0.0 0.0 0.0 0.0 0.0 0.0 0.0 0.0 0.0 0.0 0.0 0.0 0.0 0.2 0.0 0.0 0.3 0.1 0.9 1.2 1.4 2.1 2.8 3.5 4.9 9.3 11.5 13.3 15.0 16.1 16.9 16.5 15.5 14.2 11.9 9.6 8.5 7.9 7.6 6.9 6.6 5.8 4.7
0.0 0.0 0.1 0.0 0.0 0.0 0.0 0.0 0.0 0.0 0.0 0.0 0.0 0.3 0.3 0.2 0.3 0.5 0.8 0.7 0.5 1.2 1.9 2.1 3.9 6.6 7.6 8.6 9.6 10.4 10.1 9.3 8.2 7.6 7.2 6.6 6.1 5.4 4.9 4.5 4.0 3.7 3.3 3.1
0.0 0.0 0.0 0.0 0.0 0.0 0.1 0.1 0.1 0.1 0.1 0.2 0.5 0.5 0.5 0.4 0.4 1.0 2.0 2.7 3.1 5.3 6.4 6.9 9.2 9.4 8.2 7.1 5.9 6.2 6.0 6.0 5.5 4.9 4.5 4.0 3.4 2.9 2.5 2.1 1.8 1.3 1.4 0.8
1.4 1.7 1.0 0.9 0.9 0.2 0.6 0.7 0.6 0.9 0.8 1.6 1.7 1.7 1.9 2.0 2.6 3.3 5.0 5.2 5.0 6.0 7.3 7.9 7.3 6.3 5.9 5.6 4.5 4.2 3.5 3.1 2.4 2.0 1.7 1.5 1.2 1.0 0.8 0.7 0.6 0.6 0.6 0.5
1.3 1.5 2.0 2.1 2.1 1.8 1.6 1.6 1.7 1.9 2.1 2.2 2.0 2.7 3.0 3.8 4.4 5.5 6.1 5.2 5.2 4.7 6.6 5.4 4.5 3.4 3.0 2.7 1.8 1.6 1.4 1.0 1.0 0.9 0.7 0.5 0.4 0.4 0.3 0.3 0.3 0.3 0.2 0.2
1.9 2.1 1.8 1.8 1.8 1.6 1.7 2.2 2.0 2.2 3.6 3.4 3.4 4.1 4.6 6.1 6.0 5.5 4.4 4.0 4.2 4.4 4.1 3.3 2.4 1.9 1.6 1.3 0.8 0.8 0.7 0.6 0.5 0.4 0.3 0.3 0.3 0.2 0.2 0.1 0.0 0.0 0.0 0.0
2.6 2.5 2.6 2.5 2.8 2.9 3.1 3.9 2.7 3.3 4.8 4.4 3.5 4.1 4.0 4.4 3.8 3.3 2.4 2.1 3.3 2.7 2.1 1.9 1.5 1.2 0.7 0.6 0.5 0.4 0.3 0.2 0.1 0.0 0.0 0.0 0.0 0.0 0.0 0.0 0.0 0.0 0.0 0.0
3.1 2.6 3.3 3.3 2.5 3.4 4.3 4.1 3.3 3.5 3.8 3.7 3.5 3.6 2.8 3.2 2.9 2.2 2.2 1.9 2.2 1.5 1.1 0.8 0.6 0.4 0.2 0.2 0.1 0.0 0.0 0.0 0.0 0.0 0.0 0.0 0.0 0.0 0.0 0.0 0.0 0.0 0.0 0.0
3.5 3.3 3.3 3.1 2.9 3.3 3.1 2.8 2.9 2.3 2.2 2.0 1.8 1.7 1.2 1.4 1.1 0.5 1.1 1.2 0.7 0.3 0.2 0.0 0.0 0.0 0.0 0.0 0.0 0.0 0.0 0.0 0.0 0.0 0.0 0.0 0.0 0.0 0.0 0.0 0.0 0.0 0.0 0.0
2.3 1.8 1.9 1.8 0.8 0.5 0.7 1.0 0.4 0.4 0.4 0.5 0.5 0.4 0.3 0.3 0.5 0.4 0.2 0.2 0.1 0.0 0.0 0.0 0.0 0.0 0.0 0.0 0.0 0.0 0.0 0.0 0.0 0.0 0.0 0.0 0.0 0.0 0.0 0.0 0.0 0.0 0.0 0.0
0.7 0.4 0.2 0.0 0.0 0.4 0.4 0.3 0.0 0.0 0.0 0.0 0.2 0.0 0.0 0.0 0.0 0.1 0.0 0.0 0.0 0.0 0.0 0.0 0.0 0.0 0.0 0.0 0.0 0.0 0.0 0.0 0.0 0.0 0.0 0.0 0.0 0.0 0.0 0.0 0.1 0.1 0.0 0.0
0.2 0.1 0.2 0.1 0.2 0.2 0.2 0.0 0.2 0.3 0.0 0.1 0.2 0.3 0.2 0.1 0.1 0.0 0.0 0.0 0.0 0.0 0.0 0.0 0.0 0.0 0.0 0.0 0.0 0.0 0.0 0.0 0.0 0.0 0.0 0.0 0.0 0.0 0.0 0.0 0.0 0.0 0.0 0.0
0.0 0.0 0.0 0.0 0.0 0.0 0.0 0.0 0.0 0.0 0.0 0.1 0.2 0.2 0.0 0.1 0.0 0.0 0.0 0.0 0.0 0.0 0.0 0.0 0.0 0.0 0.0 0.0 0.0 0.0 0.0 0.0 0.0 0.0 0.0 0.0 0.0 0.0 0.0 0.0 0.0 0.0 0.0 0.0